Location: Condor
(52.3263°N, 114.5541°W)
Time: 22:43:07
(UTC+00:00)

Oscar 19 - Pass Details

Date: 08 December 2023
Orbit: 771 x 789 km, 98.9° (Epoch: 04 March)

Event Time Altitude Azimuth Distance (km) Brightness Sun altitude
Rises 13:41:03 0° 10° (N) 3,275 13.8 -16.2°
Reaches altitude 10° 13:43:32 10° 2° (N) 2,346 13.0 -15.8°
Maximum altitude 13:48:08 34° 299° (WNW) 1,284 11.2 -15.1°
Drops below altitude 10° 13:52:44 10° 236° (SW) 2,343 12.8 -14.5°
Sets 13:55:13 0° 227° (SW) 3,270 13.6 -14.1°
